Search the data

BODC Cruise Metadata Report for FRV Scotia (748S) cruise 1705S

Introduction

This report collates information from the BODC cruise inventory and oceanographic databases. It presents

Cruise Inventory Information

Long name FRV Scotia (748S) cruise 1705S
Short name 1705S
Objectives and Narrative To participate in the ICES co-ordinated Western Division Bottom Trawl Survey.
To obtain temperature and salinity profiles at each trawling station.
To collect additional biological data in accordance with the EU Data Directive 1639/2001.
To identify and record all invertebrate species caught.
To sample herring for presence of viral haemorrhagic septecaemia virus (VHSV).
To sample cod and monkfish to determine the levels of specific parasitic fauna.
Ship FRV Scotia
Departure Port Aberdeen, United Kingdom
Departure Date 2005-11-16
Arrival Port Aberdeen, United Kingdom
Arrival Date 2005-12-07
Principal Scientist(s) Alexander P Robb (Fisheries Research Services Aberdeen Marine Laboratory)
Responsible Organisation Fisheries Research Services Aberdeen Marine Laboratory
Associated Project(s) RV0411
IHB Sea Areas Visited Inner Seas off the West Coast of Scotland, Irish Sea and St. George's Channel, North East Atlantic Ocean (limit 40W)
Marsden Squares Visited 181;1/181;2/181;3/181;4/182;1
Work Area Description Irish Sea; north and west of Scotland and Ireland.
Work Area Bounding Polygon 50N,15W; 60N,15W; 60N,0E; 50N,0E; 50N,15W
Southern Limit 50N
Northern Limit 60N
Western Limit 15W
Eastern Limit 0E

Cruise Inventory Datasets

Physical oceanography  
CTD stations Quantity: number of stations = 86
Description: CTD deployed at trawl stations.  
Surface measurements underway (T,S) Description: Thermosalinograph run continuously throughout cruise.  
Biology and fisheries  
Demersal fish Quantity: number of hauls = 87
Description: Bottom trawls using GOV trawl.  
Demersal fish Quantity: number of specimens = 1500
Description: Herring and sprat tested for viruses; cod and monkfish tested for parasitic fauna.  
Pelagic fish Quantity: number of hauls = 87
Description: Bottom trawls using GOV trawl.  
Pelagic fish Quantity: number of specimens = 1500
Description: Herring and sprat tested for viruses; cod and monkfish tested for parasitic fauna.  

Cruise Inventory Mooring/Buoy Operations

No information on datasets is currently available

Summary of BODC Data Holdings for the Cruise

National Oceanographic Database

Summary

# Series Instrument Description Parameters
86 CTD/STD cast Electrical conductivity of the water column
Salinity of the water column
Temperature of the water column
Vertical spatial coordinates

Note: Parameter terms are taken from the BODC Parameter Discovery Vocabulary XML (SKOS)

Full List

BODC Reference Instrument Description Date/Time Location  
713269 CTD/STD cast 2005-11-17 09:09Z 58° 51' N, 3° 46' W Click for more
713270 CTD/STD cast 2005-11-17 11:00Z 58° 40' N, 4° 13' W Click for more
713282 CTD/STD cast 2005-11-17 16:05Z 59° 10' N, 4° 15' W Click for more
713294 CTD/STD cast 2005-11-17 18:11Z 59° 16' N, 3° 58' W Click for more
713301 CTD/STD cast 2005-11-18 08:10Z 59° 46' N, 4° 35' W Click for more
713313 CTD/STD cast 2005-11-18 10:02Z 59° 38' N, 5° 8' W Click for more
713325 CTD/STD cast 2005-11-18 12:12Z 59° 39' N, 5° 22' W Click for more
713337 CTD/STD cast 2005-11-18 14:38Z 59° 27' N, 5° 21' W Click for more
713349 CTD/STD cast 2005-11-18 18:22Z 59° 1' N, 5° 49' W Click for more
713350 CTD/STD cast 2005-11-19 08:12Z 59° 15' N, 6° 26' W Click for more
713362 CTD/STD cast 2005-11-19 10:46Z 59° 15' N, 6° 37' W Click for more
713374 CTD/STD cast 2005-11-19 13:32Z 58° 49' N, 6° 50' W Click for more
713386 CTD/STD cast 2005-11-19 15:52Z 58° 40' N, 7° 10' W Click for more
713398 CTD/STD cast 2005-11-19 19:14Z 58° 16' N, 7° 21' W Click for more
713405 CTD/STD cast 2005-11-20 08:14Z 58° 29' N, 8° 11' W Click for more
713417 CTD/STD cast 2005-11-20 10:02Z 58° 18' N, 8° 28' W Click for more
713429 CTD/STD cast 2005-11-20 14:54Z 58° 19' N, 9° 4' W Click for more
713430 CTD/STD cast 2005-11-20 17:51Z 58° 4' N, 9° 0' W Click for more
713442 CTD/STD cast 2005-11-20 22:13Z 57° 51' N, 9° 27' W Click for more
713454 CTD/STD cast 2005-11-21 08:19Z 57° 40' N, 9° 4' W Click for more
713466 CTD/STD cast 2005-11-21 09:21Z 57° 39' N, 8° 49' W Click for more
713478 CTD/STD cast 2005-11-21 12:40Z 57° 21' N, 8° 28' W Click for more
713491 CTD/STD cast 2005-11-21 15:39Z 57° 19' N, 9° 2' W Click for more
713509 CTD/STD cast 2005-11-21 20:50Z 56° 44' N, 8° 58' W Click for more
713510 CTD/STD cast 2005-11-22 08:04Z 56° 45' N, 8° 35' W Click for more
713522 CTD/STD cast 2005-11-22 09:19Z 56° 36' N, 8° 34' W Click for more
713534 CTD/STD cast 2005-11-22 12:04Z 56° 21' N, 8° 23' W Click for more
713546 CTD/STD cast 2005-11-22 15:31Z 56° 15' N, 9° 4' W Click for more
713558 CTD/STD cast 2005-11-22 19:43Z 55° 47' N, 9° 0' W Click for more
713571 CTD/STD cast 2005-11-23 08:11Z 55° 21' N, 8° 27' W Click for more
713583 CTD/STD cast 2005-11-23 10:53Z 55° 29' N, 9° 16' W Click for more
713595 CTD/STD cast 2005-11-23 15:14Z 55° 50' N, 8° 25' W Click for more
713602 CTD/STD cast 2005-11-23 17:53Z 55° 50' N, 7° 49' W Click for more
713614 CTD/STD cast 2005-11-24 08:16Z 54° 32' N, 5° 11' W Click for more
713626 CTD/STD cast 2005-11-24 09:51Z 54° 20' N, 4° 57' W Click for more
713638 CTD/STD cast 2005-11-24 13:00Z 54° 1' N, 5° 12' W Click for more
713651 CTD/STD cast 2005-11-24 16:06Z 53° 45' N, 5° 34' W Click for more
713663 CTD/STD cast 2005-11-24 18:12Z 53° 34' N, 5° 44' W Click for more
713675 CTD/STD cast 2005-11-26 16:37Z 53° 46' N, 4° 57' W Click for more
713687 CTD/STD cast 2005-11-26 20:24Z 53° 45' N, 4° 42' W Click for more
713699 CTD/STD cast 2005-11-27 08:05Z 53° 56' N, 3° 46' W Click for more
713706 CTD/STD cast 2005-11-27 09:15Z 54° 4' N, 3° 59' W Click for more
713718 CTD/STD cast 2005-11-27 12:07Z 54° 22' N, 3° 49' W Click for more
713731 CTD/STD cast 2005-11-27 14:05Z 54° 34' N, 3° 54' W Click for more
713743 CTD/STD cast 2005-11-27 15:43Z 54° 38' N, 4° 6' W Click for more
713755 CTD/STD cast 2005-11-28 07:57Z 55° 26' N, 4° 51' W Click for more
713767 CTD/STD cast 2005-11-28 09:26Z 55° 17' N, 5° 11' W Click for more
713779 CTD/STD cast 2005-11-28 15:08Z 55° 24' N, 6° 45' W Click for more
713780 CTD/STD cast 2005-11-29 08:02Z 54° 34' N, 10° 15' W Click for more
713792 CTD/STD cast 2005-11-29 09:53Z 54° 31' N, 9° 42' W Click for more
713811 CTD/STD cast 2005-11-29 12:55Z 54° 35' N, 8° 58' W Click for more
713823 CTD/STD cast 2005-11-29 14:52Z 54° 28' N, 8° 45' W Click for more
713835 CTD/STD cast 2005-11-29 17:44Z 54° 29' N, 9° 22' W Click for more
713847 CTD/STD cast 2005-11-30 08:04Z 53° 41' N, 10° 51' W Click for more
713859 CTD/STD cast 2005-11-30 09:35Z 53° 44' N, 11° 13' W Click for more
713860 CTD/STD cast 2005-11-30 13:10Z 54° 7' N, 10° 42' W Click for more
713872 CTD/STD cast 2005-11-30 15:43Z 54° 16' N, 10° 19' W Click for more
713884 CTD/STD cast 2005-12-01 07:57Z 54° 47' N, 9° 37' W Click for more
713896 CTD/STD cast 2005-12-01 09:57Z 55° 6' N, 9° 21' W Click for more
713903 CTD/STD cast 2005-12-01 14:39Z 55° 21' N, 8° 12' W Click for more
713915 CTD/STD cast 2005-12-01 19:07Z 55° 32' N, 7° 51' W Click for more
713927 CTD/STD cast 2005-12-02 08:04Z 55° 56' N, 6° 41' W Click for more
713939 CTD/STD cast 2005-12-02 09:55Z 55° 59' N, 7° 12' W Click for more
713940 CTD/STD cast 2005-12-02 12:19Z 56° 11' N, 7° 23' W Click for more
713952 CTD/STD cast 2005-12-02 15:07Z 56° 21' N, 6° 50' W Click for more
713964 CTD/STD cast 2005-12-02 18:04Z 56° 26' N, 7° 26' W Click for more
713976 CTD/STD cast 2005-12-03 08:01Z 56° 35' N, 7° 18' W Click for more
713988 CTD/STD cast 2005-12-03 09:04Z 56° 42' N, 7° 24' W Click for more
714003 CTD/STD cast 2005-12-03 10:50Z 56° 36' N, 7° 25' W Click for more
714015 CTD/STD cast 2005-12-03 13:41Z 56° 44' N, 7° 0' W Click for more
714027 CTD/STD cast 2005-12-03 16:32Z 57° 3' N, 7° 3' W Click for more
714039 CTD/STD cast 2005-12-03 18:34Z 57° 7' N, 6° 45' W Click for more
714040 CTD/STD cast 2005-12-04 08:36Z 57° 48' N, 6° 0' W Click for more
714052 CTD/STD cast 2005-12-04 12:51Z 57° 57' N, 6° 14' W Click for more
714064 CTD/STD cast 2005-12-04 13:30Z 58° 1' N, 6° 12' W Click for more
714076 CTD/STD cast 2005-12-04 15:49Z 58° 0' N, 5° 47' W Click for more
714088 CTD/STD cast 2005-12-04 18:08Z 58° 13' N, 5° 58' W Click for more
714107 CTD/STD cast 2005-12-04 20:43Z 58° 24' N, 5° 56' W Click for more
714119 CTD/STD cast 2005-12-05 08:02Z 58° 34' N, 5° 37' W Click for more
714120 CTD/STD cast 2005-12-05 09:34Z 58° 32' N, 6° 3' W Click for more
714132 CTD/STD cast 2005-12-05 11:52Z 58° 46' N, 6° 9' W Click for more
714144 CTD/STD cast 2005-12-05 13:52Z 58° 49' N, 6° 1' W Click for more
714156 CTD/STD cast 2005-12-05 15:52Z 58° 45' N, 5° 46' W Click for more
714168 CTD/STD cast 2005-12-06 08:05Z 59° 12' N, 3° 31' W Click for more
714181 CTD/STD cast 2005-12-06 10:28Z 59° 0' N, 4° 15' W Click for more
714193 CTD/STD cast 2005-12-06 13:31Z 58° 54' N, 3° 49' W Click for more

Project Database

No data currently held for this cruise in the BODC Project Database

References

Track Charts

Track Chart

Reports

Cruise Report